Weather in Garliavos

Lithuania     54°49′26″N   23°52′28″E
temp.,
°C
wind,
m/s
gust,
m/s
humid.,
%
clouds,
%
prec.,
mm/h
press.,
hPa
HPBL,
m
28 july, wed
wed2800:00+18sw3394100 0.8 101155
03:00+18w33958 0.8 101162
06:00+17w23967 0.0 101250
09:00+21w228250 0.0 1012294
12:00+25wsw345924 0.0 1011997
15:00+27wsw564853 0.2 10111628
18:00+28wsw474527 0.0 10101912
21:00+23ssw225719 0.0 100931
29 july, thu
thu2900:00+19wsw3481100 0.6 101050
03:00+19sw4792100 2.3 1009138
06:00+18sw4896100 0.3 1009292
09:00+19wnw369136 0.3 1009357
12:00+24w46570 0.0 10091320
15:00+27wsw574669 0.0 10082338
18:00+23nw695975 0.0 1008748
21:00+20w347240 0.0 100874
30 july, fri
fri3000:00+17wnw3779100 0.1 1009202
03:00+15sw22895 0.1 100922
06:00+15sw378911 0.0 1008167
09:00+20wsw6105685 0.1 1008853
12:00+22wsw7124472 0.0 10081858
15:00+22wsw51050100 0.0 10061489
18:00+20sw6115359 0.0 1006943
21:00+19sw5116226 0.0 1005308
31 july, sat
sat3100:00+14wsw367798 0.0 1006107
03:00+14sw49750 0.0 1006156
06:00+13sw357897 0.0 100683
09:00+19sw466145 0.0 1006318
12:00+22ssw5651100 0.0 1006781
15:00+21ssw6969100 0.2 1005669
18:00+18s4991100 1.0 1004323
21:00+18sw3488100 2.1 100361
1 august, sun
sun100:00+16w369242 0.1 1005108
03:00+14wsw49900 0.1 1006153
06:00+12sw412920 0.0 1006243
09:00+17wsw6107616 0.0 1007614
12:00+22wsw685797 0.0 10071605
15:00+22w5751100 0.0 10081786
18:00+23wsw3552100 0.0 10071128
21:00+20nw1165100 0.1 100718